Flag for Germany Weather past 2 weeks in Meppen, Lower Saxony, Germany

Now
45 °F

Cool.


Feels Like: 45 °F
Forecast: 47 / 56 °F
Wind: 2 mph from Southwest

Location: Meppen

Current Time: Oct 23, 2014 at 3:59:57 AM

Latest Report: Oct 23, 2014 at 3:00 AM


Visibility: 8 mi

Pressure: 30.15 "Hg

Humidity: 92%

Dew point: 43 °F

Location of MeppenLocation

Historic Weather in Meppen — Graph

°F

Meppen temperature yesterday

Maximum temperature yesterday: 52 °F (at 1:00 PM)
Minimum temperature yesterday: 46 °F (at 9:00 AM)
Average temperature yesterday: 49 °F

Past Weeks' High & Low Weather Summary

 TemperatureHumidityPressure
High72 °F (Oct 19, 1:00 PM)96% (Oct 11, 1:00 AM)30.14 "Hg (Oct 11, 1:00 AM)
Low43 °F (Oct 11, 7:00 AM)58% (Oct 14, 2:00 PM)29.38 "Hg (Oct 21, 4:00 PM)
Average56 °F84%29.81 "Hg
* Reported Oct 8 1:00 AM — Oct 23 1:00 AM, Meppen, Weather by CustomWeather, © 2014

Note: Actual official high and low records may vary slightly from our data, if they occured in-between our weather recording intervals... More about our weather records

Advertising

Meppen weather history for previous 24 hours

 ConditionsComfort  
Time TempWeatherWind HumidityBarometerVisibility
1:00 AM
Oct 23
47 °FCool.2 mph85%30.14 "Hg8 mi
12:00 AM48 °FCool.2 mph82%30.13 "Hg7 mi
10:00 PM
Oct 22
49 °FCool.2 mph73%30.12 "Hg7 mi
9:00 PM50 °FCool.2 mph67%30.10 "Hg8 mi
8:00 PM50 °FCool.3 mph69%30.08 "Hg7 mi
7:00 PM52 °FCool.6 mph63%30.06 "Hg7 mi
6:00 PM52 °FCool.5 mph66%30.04 "Hg8 mi
4:00 PM52 °FOvercast.5 mph64%30.00 "Hg22 mi
3:00 PM52 °FOvercast.6 mph65%29.98 "Hg22 mi
2:00 PM52 °FOvercast.6 mph67%29.96 "Hg22 mi
1:00 PM52 °FOvercast.7 mph63%29.93 "Hg19 mi
12:00 PM49 °FOvercast.5 mph78%29.91 "Hg19 mi
10:00 AM48 °FSprinkles. Overcast.5 mph81%29.87 "Hg11 mi
9:00 AM46 °FSprinkles. Overcast.5 mph87%29.84 "Hg6 mi
7:00 AM46 °FSprinkles. Overcast.5 mph87%29.78 "Hg7 mi
6:00 AM47 °FOvercast.6 mph80%29.76 "Hg9 mi
4:00 AM47 °FCool.6 mph87%29.73 "Hg6 mi
3:00 AM48 °FCool.6 mph87%29.71 "Hg6 mi
Weather by CustomWeather, © 2014

See weather overviewHow to use our weather pages